Terug naar catalogus

ONEWEB-0119

ActiefCommunicatiePO
NORAD 47265·PAYLOAD·🇬🇧 United Kingdom

Gelanceerd Dec 18, 2020 vanaf Vostochny Cosmodrome

Loading…

Volgende Passages (komende 24 uur)

TLE

VersSource: CelesTrak SupGP

Epoch: Sep 14, 2026, 21:09 UTC

1 47265C 20100H   26257.88177500 -.00002836  00000+0 -78931-2 0  2572
2 47265  87.8979 332.8579 0001872 100.9096   1.9059 13.12446050    15

Volg ONEWEB-0119 in realtime met AllMySat

Download on the App Store